When you browse on this site, cookies collect data to enhance your experience and personalize the content and advertising you see.
Visit our Privacy Policy to learn more. By continuing to use the site, you agree to this use of cookies and data.
  • In United Kingdom
  • List of Countries
  • For 7 days
  • Water Temperature
  • Satellite Maps
  • Weather Map
  • Weather Widgets
  • user-avatar
    Login

    Hourly Weather Salawaj

    Today, 22 February, Friday

    Time Temperature Precipitation Wind Pressure Humidity
    00:00 +27°C° 0 mm 1 mps 743 mmHg 59%
    01:00 +26°C° 0 mm 1 mps 743 mmHg 63%
    02:00 +26°C° 0 mm 1 mps 743 mmHg 64%
    03:00 +26°C° 0 mm 1 mps 743 mmHg 64%
    04:00 +25°C° 0 mm 1 mps 743 mmHg 65%
    05:00 +25°C° 0 mm 1 mps 743 mmHg 65%
    06:00 +26°C° 0 mm 1 mps 743 mmHg 65%
    07:00 +26°C° 0 mm 1 mps 744 mmHg 65%
    08:00 +29°C° 0 mm 1 mps 744 mmHg 55%
    09:00 +33°C° 0 mm 1 mps 744 mmHg 45%
    10:00 +37°C° 0 mm 1 mps 745 mmHg 35%
    11:00 +36°C° 0 mm 0 mps 744 mmHg 32%
    12:00 +37°C° 0 mm 0 mps 743 mmHg 28%
    13:00 +39°C° 0 mm 0 mps 743 mmHg 24%
    14:00 +38°C° 0 mm 0 mps 742 mmHg 25%
    15:00 +40°C° 0 mm 1 mps 742 mmHg 26%
    16:00 +39°C° 0 mm 1 mps 741 mmHg 27%
    17:00 +35°C° 0 mm 1 mps 741 mmHg 33%
    18:00 +31°C° 0 mm 0 mps 742 mmHg 39%
    19:00 +28°C° 0 mm 0 mps 742 mmHg 45%
    20:00 +27°C° 0 mm 0 mps 742 mmHg 50%
    21:00 +28°C° 0 mm 1 mps 742 mmHg 55%
    22:00 +28°C° 0 mm 1 mps 743 mmHg 61%
    23:00 +27°C° 0 mm 1 mps 743 mmHg 64%

    Tomorrow, 23 February, Saturday

    Time Temperature Precipitation Wind Pressure Humidity
    00:00 +27°C° 0 mm 1 mps 743 mmHg 68%
    01:00 +26°C° 0 mm 1 mps 742 mmHg 71%
    02:00 +26°C° 0 mm 1 mps 742 mmHg 71%
    03:00 +25°C° 0 mm 1 mps 742 mmHg 72%
    04:00 +25°C° 0 mm 1 mps 742 mmHg 72%
    05:00 +25°C° 0 mm 1 mps 742 mmHg 71%
    06:00 +25°C° 0 mm 1 mps 742 mmHg 69%
    07:00 +25°C° 0 mm 1 mps 743 mmHg 68%
    08:00 +29°C° 0 mm 1 mps 743 mmHg 57%
    09:00 +33°C° 0 mm 1 mps 743 mmHg 46%
    10:00 +36°C° 0 mm 1 mps 744 mmHg 36%
    11:00 +37°C° 0 mm 1 mps 743 mmHg 32%
    12:00 +39°C° 0 mm 1 mps 742 mmHg 29%
    13:00 +40°C° 0 mm 1 mps 741 mmHg 26%
    14:00 +40°C° 0 mm 1 mps 741 mmHg 28%
    15:00 +39°C° 0 mm 1 mps 740 mmHg 29%
    16:00 +37°C° 0 mm 1 mps 739 mmHg 30%
    17:00 +35°C° 0 mm 1 mps 740 mmHg 36%
    18:00 +31°C° 0 mm 0 mps 740 mmHg 41%
    19:00 +29°C° 0 mm 0 mps 741 mmHg 47%
    20:00 +28°C° 0 mm 0 mps 741 mmHg 49%
    21:00 +27°C° 0 mm 0 mps 741 mmHg 52%
    22:00 +28°C° 0 mm 1 mps 742 mmHg 55%
    23:00 +28°C° 0 mm 1 mps 742 mmHg 57%

    Day after tomorrow, 24 February, Sunday

    Time Temperature Precipitation Wind Pressure Humidity
    00:00 +27°C° 0 mm 1 mps 742 mmHg 58%
    01:00 +27°C° 0 mm 1 mps 742 mmHg 59%
    02:00 +27°C° 0 mm 1 mps 741 mmHg 60%
    03:00 +26°C° 0 mm 1 mps 741 mmHg 60%
    04:00 +26°C° 0 mm 1 mps 741 mmHg 61%
    05:00 +26°C° 0 mm 1 mps 742 mmHg 62%
    06:00 +26°C° 0 mm 1 mps 742 mmHg 63%
    07:00 +26°C° 0 mm 1 mps 743 mmHg 64%
    08:00 +29°C° 0 mm 1 mps 743 mmHg 56%
    09:00 +32°C° 0 mm 1 mps 743 mmHg 48%
    10:00 +35°C° 0 mm 1 mps 744 mmHg 40%
    11:00 +37°C° 0 mm 1 mps 743 mmHg 35%
    12:00 +40°C° 0 mm 1 mps 742 mmHg 31%
    13:00 +42°C° 0 mm 1 mps 741 mmHg 26%
    14:00 +41°C° 0 mm 1 mps 740 mmHg 27%
    15:00 +40°C° 0 mm 1 mps 740 mmHg 28%
    16:00 +39°C° 0 mm 1 mps 739 mmHg 29%
    17:00 +35°C° 0 mm 1 mps 740 mmHg 36%
    18:00 +33°C° 0 mm 1 mps 740 mmHg 42%
    19:00 +30°C° 0 mm 1 mps 741 mmHg 48%
    20:00 +29°C° 0 mm 1 mps 741 mmHg 53%
    21:00 +28°C° 0 mm 1 mps 742 mmHg 57%
    22:00 +27°C° 0 mm 1 mps 742 mmHg 61%
    23:00 +27°C° 0 mm 1 mps 742 mmHg 64%

    25 February, Monday

    Time Temperature Precipitation Wind Pressure Humidity
    00:00 +26°C° 0 mm 1 mps 742 mmHg 66%
    01:00 +26°C° 0 mm 1 mps 742 mmHg 68%
    02:00 +26°C° 0 mm 1 mps 741 mmHg 68%
    03:00 +26°C° 0 mm 1 mps 741 mmHg 69%
    04:00 +25°C° 0 mm 1 mps 741 mmHg 69%
    05:00 +26°C° 0 mm 1 mps 742 mmHg 68%
    06:00 +26°C° 0 mm 1 mps 742 mmHg 67%
    07:00 +26°C° 0 mm 1 mps 743 mmHg 66%
    08:00 +30°C° 0 mm 1 mps 743 mmHg 55%
    09:00 +33°C° 0 mm 1 mps 744 mmHg 44%
    10:00 +37°C° 0 mm 1 mps 744 mmHg 33%
    11:00 +39°C° 0 mm 1 mps 743 mmHg 30%
    12:00 +40°C° 0 mm 1 mps 742 mmHg 27%
    13:00 +42°C° 0 mm 1 mps 742 mmHg 25%
    14:00 +40°C° 0 mm 1 mps 741 mmHg 27%
    15:00 +39°C° 0 mm 1 mps 741 mmHg 30%
    16:00 +38°C° 0 mm 2 mps 740 mmHg 32%
    17:00 +34°C° 0 mm 1 mps 740 mmHg 39%
    18:00 +32°C° 0 mm 1 mps 741 mmHg 45%
    19:00 +30°C° 0 mm 1 mps 741 mmHg 52%
    20:00 +29°C° 0 mm 1 mps 742 mmHg 55%
    21:00 +29°C° 0 mm 1 mps 743 mmHg 57%
    22:00 +28°C° 0 mm 1 mps 743 mmHg 60%
    23:00 +28°C° 0 mm 1 mps 743 mmHg 61%

    26 February, Tuesday

    Time Temperature Precipitation Wind Pressure Humidity
    00:00 +27°C° 0 mm 1 mps 742 mmHg 61%
    01:00 +27°C° 0 mm 1 mps 742 mmHg 62%
    02:00 +27°C° 0 mm 1 mps 742 mmHg 63%
    03:00 +27°C° 0 mm 1 mps 742 mmHg 64%
    04:00 +26°C° 0 mm 1 mps 742 mmHg 64%
    05:00 +26°C° 0 mm 1 mps 742 mmHg 64%
    06:00 +27°C° 0 mm 1 mps 743 mmHg 64%
    07:00 +27°C° 0 mm 1 mps 744 mmHg 64%
    08:00 +30°C° 0 mm 1 mps 744 mmHg 54%
    09:00 +33°C° 0 mm 1 mps 744 mmHg 44%
    10:00 +37°C° 0 mm 1 mps 745 mmHg 35%
    11:00 +39°C° 0 mm 1 mps 744 mmHg 32%
    12:00 +37°C° 0 mm 0 mps 743 mmHg 29%
    13:00 +39°C° 0 mm 0 mps 742 mmHg 26%
    14:00 +40°C° 0 mm 1 mps 741 mmHg 29%
    15:00 +37°C° 0 mm 1 mps 741 mmHg 32%
    16:00 +36°C° 0 mm 1 mps 740 mmHg 35%
    17:00 +34°C° 0 mm 1 mps 741 mmHg 39%
    18:00 +31°C° 0 mm 0 mps 741 mmHg 43%
    19:00 +29°C° 0 mm 0 mps 742 mmHg 48%
    20:00 +28°C° 0 mm 0 mps 742 mmHg 50%
    21:00 +29°C° 0 mm 1 mps 743 mmHg 53%
    22:00 +29°C° 0 mm 1 mps 743 mmHg 55%
    23:00 +29°C° 0 mm 1 mps 743 mmHg 56%

    27 February, Wednesday

    Time Temperature Precipitation Wind Pressure Humidity
    00:00 +28°C° 0 mm 1 mps 742 mmHg 57%
    01:00 +28°C° 0 mm 1 mps 742 mmHg 58%
    02:00 +27°C° 0 mm 1 mps 742 mmHg 60%
    03:00 +26°C° 0 mm 1 mps 742 mmHg 61%
    04:00 +26°C° 0 mm 1 mps 742 mmHg 63%
    05:00 +26°C° 0 mm 1 mps 742 mmHg 62%
    06:00 +26°C° 0 mm 1 mps 743 mmHg 61%
    07:00 +24°C° 0 mm 0 mps 743 mmHg 60%
    08:00 +28°C° 0 mm 0 mps 744 mmHg 50%
    09:00 +31°C° 0 mm 0 mps 744 mmHg 41%
    10:00 +35°C° 0 mm 0 mps 744 mmHg 31%
    11:00 +39°C° 0 mm 1 mps 743 mmHg 29%
    12:00 +40°C° 0 mm 1 mps 742 mmHg 27%
    13:00 +42°C° 0 mm 1 mps 741 mmHg 24%
    14:00 +41°C° 0 mm 1 mps 741 mmHg 26%
    15:00 +40°C° 0 mm 1 mps 740 mmHg 27%
    16:00 +39°C° 0 mm 1 mps 740 mmHg 28%
    17:00 +36°C° 0 mm 1 mps 740 mmHg 33%
    18:00 +34°C° 0 mm 1 mps 741 mmHg 38%
    19:00 +30°C° 0 mm 0 mps 741 mmHg 42%
    20:00 +31°C° 0 mm 1 mps 741 mmHg 46%
    21:00 +29°C° 0 mm 1 mps 742 mmHg 49%
    22:00 +28°C° 0 mm 1 mps 742 mmHg 53%
    23:00 +28°C° 0 mm 1 mps 742 mmHg 53%
    Show more